Weather History for Canton, GA

Change the Weather History Date:

Thursday, November 10, 2011

  Actual Average (KGVL) Record (KGVL)
Temperature  
Mean Temperature 46 °F 55 °F  
Max Temperature 53 °F 64 °F 77 °F (1931)
Min Temperature 39 °F 45 °F 25 °F (1973)
Degree Days  
Heating Degree Days 19 11  
Month to date heating degree days 95  
Since 1 July heating degree days 253  
Moisture  
Dew Point 37 °F    
Average Humidity 71    
Maximum Humidity 100    
Minimum Humidity 44    
Precipitation  
Precipitation 0.00 in 0.13 in 1.85 in (1966)
Month to date precipitation 1.18  
Snow  
Snow - - - ()
Month to date snowfall  
Since 1 July snowfall  
Since 1 September snowfall  
Snow Depth -    
Sea Level Pressure  
Sea Level Pressure 30.03 in    
Wind  
Wind Speed 8 mph ()    
Max Wind Speed 15 mph    
Max Gust Speed 28 mph    
Visibility 9.8 miles    
Events      
T = Trace of Precipitation, MM = Missing Value Source: Averaged Metar Reports

Daily Weather History Graph

Daily Weather History Graph

Search for Another Location

Airport:

Trip Planner

Search our weather history database for the weather conditions in past years. The results will help you decide how hot, cold, wet, or windy it might be!

Date:

Astronomy

Nov. 10, 2011 Rise Set
Actual Time 7:05 AM EST 5:36 PM EST
Civil Twilight 6:39 AM EST 6:03 PM EST
Nautical Twilight 6:09 AM EST 6:33 PM EST
Astronomical Twilight 5:39 AM EST 7:03 PM EST
Moon 5:26 PM EST (11/10) 6:55 AM EST (11/10)
Length of Visible Light 11h 24m
Length of Day
10h 31m
Full, 100% of the Moon is Illuminated
Nov 10
Full
Nov 10
Full
Nov 18
Last Quarter
Nov 25
New
Dec 2
First Quarter

Hourly Weather History & Observations

Time (EST) Temp. Windchill Dew Point Humidity Pressure Visibility Wind Dir Wind Speed Gust Speed Precip Events Conditions
12:15 AM 53.6 °F - 53.6 °F 100% 30.01 in 5.0 mi WNW 8.1 mph - N/A   Overcast
12:35 AM 53.6 °F - 53.6 °F 100% 30.00 in 7.0 mi NW 5.8 mph - N/A   Light Drizzle
12:55 AM 51.8 °F - 51.8 °F 100% 30.00 in 7.0 mi WNW 6.9 mph - N/A   Overcast
1:15 AM 51.8 °F - 51.8 °F 100% 30.00 in 10.0 mi WNW 5.8 mph - N/A   Overcast
1:35 AM 50.0 °F - 50.0 °F 100% 30.00 in 10.0 mi WNW 8.1 mph - N/A   Mostly Cloudy
2:15 AM 50.0 °F - 50.0 °F 100% 30.00 in 10.0 mi WNW 6.9 mph - N/A   Overcast
2:35 AM 50.0 °F - 50.0 °F 100% 29.99 in 10.0 mi WNW 6.9 mph - N/A   Overcast
2:55 AM 50.0 °F - 48.2 °F 94% 30.00 in 10.0 mi WNW 9.2 mph - N/A   Overcast
3:15 AM 48.2 °F - 48.2 °F 100% 29.99 in 10.0 mi NW 5.8 mph 16.1 mph N/A   Overcast
3:35 AM 48.2 °F - 46.4 °F 93% 29.97 in 10.0 mi NW 8.1 mph - N/A   Overcast
4:15 AM 46.4 °F 41.9 °F 46.4 °F 100% 29.99 in 10.0 mi NW 9.2 mph - N/A   Mostly Cloudy
4:35 AM 46.4 °F 42.4 °F 44.6 °F 93% 29.99 in 10.0 mi WNW 8.1 mph - N/A   Scattered Clouds
4:55 AM 44.6 °F 41.4 °F 42.8 °F 93% 29.99 in 10.0 mi WNW 5.8 mph - N/A   Clear
5:15 AM 44.6 °F 40.2 °F 42.8 °F 93% 29.99 in 10.0 mi NW 8.1 mph 16.1 mph N/A   Clear
5:35 AM 44.6 °F 40.7 °F 42.8 °F 93% 29.99 in 10.0 mi NW 6.9 mph - N/A   Clear
5:55 AM 42.8 °F 37.5 °F 42.8 °F 100% 30.00 in 10.0 mi NW 9.2 mph - N/A   Clear
6:15 AM 42.8 °F 38.0 °F 41.0 °F 93% 30.01 in 10.0 mi WNW 8.1 mph - N/A   Clear
7:15 AM 42.8 °F 39.3 °F 41.0 °F 93% 30.01 in 10.0 mi NW 5.8 mph - N/A   Scattered Clouds
7:35 AM 42.8 °F 38.0 °F 41.0 °F 93% 30.02 in 10.0 mi NW 8.1 mph - N/A   Clear
8:15 AM 42.8 °F 37.5 °F 41.0 °F 93% 30.03 in 10.0 mi WNW 9.2 mph - N/A   Clear
8:35 AM 42.8 °F 38.0 °F 41.0 °F 93% 30.02 in 10.0 mi NW 8.1 mph 18.4 mph N/A   Clear
8:55 AM 42.8 °F 36.6 °F 41.0 °F 93% 30.02 in 10.0 mi NW 11.5 mph 18.4 mph N/A   Clear
9:35 AM 46.4 °F 41.1 °F 42.8 °F 87% 30.04 in 10.0 mi NW 11.5 mph - N/A   Clear
9:55 AM 46.4 °F 41.9 °F 41.0 °F 81% 30.05 in 10.0 mi WNW 9.2 mph - N/A   Scattered Clouds
10:35 AM 48.2 °F - 41.0 °F 76% 30.05 in 10.0 mi NW 9.2 mph 18.4 mph N/A   Scattered Clouds
10:55 AM 48.2 °F - 41.0 °F 76% 30.05 in 10.0 mi NW 5.8 mph 16.1 mph N/A   Clear
11:15 AM 50.0 °F - 41.0 °F 71% 30.05 in 10.0 mi NW 6.9 mph 19.6 mph N/A   Clear
11:35 AM 48.2 °F - 39.2 °F 71% 30.06 in 10.0 mi NW 10.4 mph 25.3 mph N/A   Clear
11:55 AM 48.2 °F - 37.4 °F 66% 30.05 in 10.0 mi NW 10.4 mph 23.0 mph N/A   Clear
12:15 PM 48.2 °F - 37.4 °F 66% 30.03 in 10.0 mi NW 13.8 mph 20.7 mph N/A   Clear
12:35 PM 50.0 °F - 37.4 °F 62% 30.04 in 10.0 mi WNW 12.7 mph 21.9 mph N/A   Clear
12:55 PM 50.0 °F - 37.4 °F 62% 30.02 in 10.0 mi NW 9.2 mph 19.6 mph N/A   Clear
1:15 PM 51.8 °F - 35.6 °F 54% 30.01 in 10.0 mi NW 11.5 mph 19.6 mph N/A   Clear
1:35 PM 51.8 °F - 35.6 °F 54% 30.00 in 10.0 mi NW 10.4 mph 19.6 mph N/A   Clear
1:55 PM 51.8 °F - 33.8 °F 50% 29.99 in 10.0 mi NW 15.0 mph 21.9 mph N/A   Clear
2:15 PM 51.8 °F - 33.8 °F 50% 30.00 in 10.0 mi NW 6.9 mph 20.7 mph N/A   Clear
2:35 PM 51.8 °F - 32.0 °F 47% 30.00 in 10.0 mi WNW 9.2 mph 25.3 mph N/A   Clear
2:55 PM 51.8 °F - 32.0 °F 47% 30.01 in 10.0 mi NW 12.7 mph 27.6 mph N/A   Clear
3:15 PM 51.8 °F - 32.0 °F 47% 30.02 in 10.0 mi WNW 11.5 mph 20.7 mph N/A   Clear
3:35 PM 51.8 °F - 32.0 °F 47% 30.01 in 10.0 mi NW 11.5 mph 21.9 mph N/A   Clear
3:55 PM 51.8 °F - 32.0 °F 47% 30.01 in 10.0 mi NW 9.2 mph 20.7 mph N/A   Clear
4:15 PM 51.8 °F - 30.2 °F 44% 30.01 in 10.0 mi NW 11.5 mph 24.2 mph N/A   Clear
4:35 PM 51.8 °F - 30.2 °F 44% 30.01 in 10.0 mi NW 8.1 mph 20.7 mph N/A   Clear
4:55 PM 51.8 °F - 30.2 °F 44% 30.01 in 10.0 mi NW 12.7 mph 21.9 mph N/A   Clear
5:15 PM 50.0 °F - 30.2 °F 47% 30.01 in 10.0 mi NW 5.8 mph - N/A   Clear
5:35 PM 48.2 °F - 30.2 °F 50% 30.01 in 10.0 mi NW 6.9 mph - N/A   Clear
5:55 PM 46.4 °F 44.3 °F 32.0 °F 57% 30.01 in 10.0 mi NW 4.6 mph - N/A   Clear
6:15 PM 46.4 °F 44.3 °F 32.0 °F 57% 30.02 in 10.0 mi NW 4.6 mph - N/A   Clear
6:35 PM 44.6 °F 40.7 °F 32.0 °F 61% 30.02 in 10.0 mi WNW 6.9 mph - N/A   Clear
6:55 PM 44.6 °F 40.7 °F 32.0 °F 61% 30.03 in 10.0 mi NW 6.9 mph - N/A   Clear
7:15 PM 44.6 °F 40.7 °F 30.2 °F 57% 30.04 in 10.0 mi NW 6.9 mph - N/A   Clear
7:35 PM 44.6 °F 40.2 °F 30.2 °F 57% 30.04 in 10.0 mi NW 8.1 mph - N/A   Clear
7:55 PM 44.6 °F 41.4 °F 30.2 °F 57% 30.05 in 10.0 mi NW 5.8 mph - N/A   Clear
8:15 PM 44.6 °F 39.2 °F 30.2 °F 57% 30.05 in 10.0 mi NW 10.4 mph 16.1 mph N/A   Clear
8:35 PM 44.6 °F 39.2 °F 30.2 °F 57% 30.06 in 10.0 mi NW 10.4 mph 17.3 mph N/A   Clear
8:55 PM 42.8 °F 38.6 °F 30.2 °F 61% 30.06 in 10.0 mi NW 6.9 mph - N/A   Clear
9:15 PM 42.8 °F 38.6 °F 28.4 °F 57% 30.06 in 10.0 mi WNW 6.9 mph - N/A   Clear
9:35 PM 42.8 °F 38.0 °F 28.4 °F 57% 30.07 in 10.0 mi NW 8.1 mph - N/A   Clear
9:55 PM 42.8 °F 37.0 °F 24.8 °F 49% 30.07 in 10.0 mi NW 10.4 mph 24.2 mph N/A   Clear
10:15 PM 42.8 °F 36.6 °F 26.6 °F 53% 30.08 in 10.0 mi NW 11.5 mph 17.3 mph N/A   Clear
10:35 PM 42.8 °F 38.0 °F 24.8 °F 49% 30.09 in 10.0 mi NW 8.1 mph 26.5 mph N/A   Clear
10:55 PM 41.0 °F 36.4 °F 26.6 °F 57% 30.09 in 10.0 mi NW 6.9 mph 19.6 mph N/A   Clear
11:15 PM 41.0 °F 37.1 °F 26.6 °F 57% 30.10 in 10.0 mi NW 5.8 mph 18.4 mph N/A   Clear
11:35 PM 39.2 °F 34.2 °F 26.6 °F 61% 30.10 in 10.0 mi NW 6.9 mph - N/A   Clear
11:55 PM 39.2 °F 35.0 °F 26.6 °F 61% 30.10 in 10.0 mi NW 5.8 mph - N/A   Clear